DLH204 EDDF-EDDB

Flight info

Callsign DLH204
Flight time 0h 48m
Altitude 31000
Route TOBAK3W/25C TOBAK N858 SWALM T201 TAMEB T278 KLF KLF1R
Aircraft A320/M-SDE3FGHIRWY/LB1

Departure

Time 2026-05-05 20:15
Airport Frankfurt Main Airport (EDDF)

Arrival

Time 2026-05-05 21:04
Airport Berlin Brandenburg Airport (EDDB)
Time Latitude Longitude Altitude Speed Heading
2026-05-05 19:37 50.04452 8.56431 360 ft 0 kts 154°
2026-05-05 20:01 50.04462 8.56424 359 ft 4 kts 154°
2026-05-05 20:01 50.04486 8.56406 362 ft 4 kts 159°
2026-05-05 20:01 50.04511 8.56397 359 ft 4 kts 194°
2026-05-05 20:02 50.04522 8.56406 356 ft 0 kts 250°
2026-05-05 20:02 50.04515 8.56377 359 ft 2 kts 250°
2026-05-05 20:02 50.04514 8.56374 358 ft 0 kts 250°
2026-05-05 20:06 50.04507 8.56341 361 ft 6 kts 250°
2026-05-05 20:06 50.04490 8.56273 358 ft 6 kts 249°
2026-05-05 20:06 50.04474 8.56209 358 ft 8 kts 249°
2026-05-05 20:07 50.04454 8.56125 364 ft 8 kts 250°
2026-05-05 20:07 50.04436 8.56056 360 ft 6 kts 239°
2026-05-05 20:07 50.04392 8.56026 356 ft 8 kts 172°
2026-05-05 20:07 50.04340 8.56056 362 ft 8 kts 159°
2026-05-05 20:08 50.04297 8.56098 359 ft 7 kts 128°
2026-05-05 20:08 50.04291 8.56179 355 ft 7 kts 94°
2026-05-05 20:08 50.04261 8.56228 359 ft 6 kts 154°
2026-05-05 20:08 50.04207 8.56259 357 ft 11 kts 160°
2026-05-05 20:09 50.04152 8.56302 363 ft 8 kts 133°
2026-05-05 20:09 50.04149 8.56375 356 ft 6 kts 72°
2026-05-05 20:09 50.04172 8.56466 357 ft 12 kts 70°
2026-05-05 20:09 50.04200 8.56586 362 ft 10 kts 70°
2026-05-05 20:10 50.04225 8.56689 357 ft 11 kts 69°
2026-05-05 20:10 50.04256 8.56817 364 ft 13 kts 69°
2026-05-05 20:10 50.04285 8.56940 363 ft 12 kts 69°
2026-05-05 20:10 50.04311 8.57048 361 ft 9 kts 70°
2026-05-05 20:11 50.04330 8.57126 365 ft 7 kts 70°
2026-05-05 20:11 50.04355 8.57236 361 ft 15 kts 70°
2026-05-05 20:11 50.04393 8.57393 368 ft 15 kts 69°
2026-05-05 20:11 50.04429 8.57547 366 ft 15 kts 70°
2026-05-05 20:12 50.04461 8.57677 366 ft 13 kts 69°
2026-05-05 20:12 50.04500 8.57841 370 ft 20 kts 70°
2026-05-05 20:12 50.04553 8.58058 364 ft 23 kts 70°
2026-05-05 20:12 50.04606 8.58287 369 ft 22 kts 69°
2026-05-05 20:13 50.04640 8.58429 369 ft 11 kts 69°
2026-05-05 20:13 50.04653 8.58530 369 ft 9 kts 101°
2026-05-05 20:13 50.04614 8.58581 369 ft 7 kts 163°
2026-05-05 20:13 50.04580 8.58598 370 ft 4 kts 161°
2026-05-05 20:14 50.04545 8.58617 371 ft 5 kts 160°
2026-05-05 20:14 50.04512 8.58629 371 ft 6 kts 178°
2026-05-05 20:14 50.04472 8.58531 370 ft 18 kts 252°
2026-05-05 20:14 50.04367 8.58088 370 ft 79 kts 250°
2026-05-05 20:15 50.04100 8.56973 363 ft 139 kts 249°
2026-05-05 20:15 50.03716 8.55351 622 ft 165 kts 250°
2026-05-05 20:15 50.03337 8.53693 1369 ft 161 kts 249°
2026-05-05 20:15 50.02949 8.52068 2116 ft 161 kts 249°
2026-05-05 20:16 50.02482 8.50395 2543 ft 178 kts 237°
2026-05-05 20:16 50.01580 8.48894 2929 ft 199 kts 215°
2026-05-05 20:16 50.00291 8.48046 3697 ft 204 kts 192°
2026-05-05 20:16 49.98879 8.47727 4554 ft 205 kts 190°
2026-05-05 20:17 49.97459 8.47415 5359 ft 207 kts 191°
2026-05-05 20:17 49.96025 8.47064 6145 ft 210 kts 197°
2026-05-05 20:17 49.94548 8.46400 6552 ft 232 kts 199°
2026-05-05 20:17 49.92956 8.45643 7170 ft 244 kts 202°
2026-05-05 20:18 49.91543 8.44215 7942 ft 245 kts 229°
2026-05-05 20:18 49.90731 8.41901 8813 ft 248 kts 256°
2026-05-05 20:18 49.90727 8.39190 9693 ft 254 kts 283°
2026-05-05 20:18 49.91587 8.36766 10479 ft 264 kts 311°
2026-05-05 20:19 49.93150 8.35204 11260 ft 274 kts 333°
2026-05-05 20:19 49.94343 8.34404 11503 ft 290 kts 334°
2026-05-05 20:19 49.96265 8.33155 11774 ft 314 kts 335°
2026-05-05 20:19 49.98374 8.31803 12032 ft 337 kts 335°
2026-05-05 20:20 50.00620 8.30377 12268 ft 358 kts 336°
2026-05-05 20:20 50.03174 8.29327 12851 ft 371 kts 349°
2026-05-05 20:20 50.05664 8.29090 13523 ft 378 kts
2026-05-05 20:20 50.08285 8.29636 14171 ft 384 kts 12°
2026-05-05 20:21 50.10861 8.30910 14795 ft 389 kts 18°
2026-05-05 20:21 50.13440 8.32271 15451 ft 393 kts 17°
2026-05-05 20:21 50.16046 8.33640 16051 ft 397 kts 17°
2026-05-05 20:21 50.18681 8.35019 16673 ft 401 kts 17°
2026-05-05 20:22 50.21346 8.36413 17284 ft 405 kts 18°
2026-05-05 20:22 50.24035 8.37826 17885 ft 409 kts 18°
2026-05-05 20:22 50.26740 8.39299 18428 ft 413 kts 22°
2026-05-05 20:22 50.29317 8.41340 18950 ft 416 kts 32°
2026-05-05 20:23 50.31637 8.44030 19478 ft 417 kts 42°
2026-05-05 20:23 50.33811 8.47066 20031 ft 419 kts 43°
2026-05-05 20:23 50.35994 8.50100 20594 ft 421 kts 43°
2026-05-05 20:23 50.38168 8.53114 21136 ft 422 kts 43°
2026-05-05 20:24 50.40394 8.56202 21678 ft 424 kts 44°
2026-05-05 20:24 50.42347 8.59639 22179 ft 423 kts 58°
2026-05-05 20:24 50.43647 8.63755 22676 ft 421 kts 70°
2026-05-05 20:24 50.44732 8.68045 23204 ft 423 kts 70°
2026-05-05 20:25 50.45810 8.72337 23659 ft 425 kts 70°
2026-05-05 20:25 50.46896 8.76671 24073 ft 426 kts 70°
2026-05-05 20:25 50.47979 8.81005 24483 ft 428 kts 71°
2026-05-05 20:25 50.49067 8.85371 24884 ft 429 kts 71°
2026-05-05 20:26 50.50155 8.89737 25280 ft 431 kts 71°
2026-05-05 20:26 50.51249 8.94134 25684 ft 432 kts 71°
2026-05-05 20:26 50.52343 8.98547 26084 ft 434 kts 71°
2026-05-05 20:26 50.53441 9.02975 26446 ft 436 kts 71°
2026-05-05 20:27 50.54544 9.07422 26788 ft 438 kts 71°
2026-05-05 20:27 50.55652 9.11898 27137 ft 440 kts 71°
2026-05-05 20:27 50.56761 9.16394 27483 ft 442 kts 71°
2026-05-05 20:27 50.57872 9.20914 27828 ft 443 kts 71°
2026-05-05 20:28 50.58984 9.25450 28178 ft 445 kts 72°
2026-05-05 20:28 50.60100 9.30009 28501 ft 446 kts 72°
2026-05-05 20:28 50.61221 9.34583 28807 ft 448 kts 71°
2026-05-05 20:28 50.62340 9.39150 29081 ft 451 kts 71°
2026-05-05 20:29 50.63467 9.43760 29460 ft 451 kts 71°
2026-05-05 20:29 50.64586 9.48360 29925 ft 449 kts 72°
2026-05-05 20:29 50.65688 9.52923 30310 ft 447 kts 72°
2026-05-05 20:29 50.66802 9.57566 30668 ft 447 kts 72°
2026-05-05 20:30 50.67895 9.62118 31009 ft 446 kts 72°
2026-05-05 20:30 50.68993 9.66669 31374 ft 446 kts 72°
2026-05-05 20:30 50.70108 9.71295 31726 ft 445 kts 73°
2026-05-05 20:30 50.71206 9.75863 32076 ft 445 kts 73°
2026-05-05 20:31 50.72301 9.80426 32432 ft 445 kts 73°
2026-05-05 20:31 50.73393 9.85005 32790 ft 444 kts 73°
2026-05-05 20:31 50.74473 9.89545 33075 ft 444 kts 73°
2026-05-05 20:31 50.75560 9.94115 33393 ft 444 kts 73°
2026-05-05 20:32 50.76644 9.98690 33743 ft 444 kts 73°
2026-05-05 20:32 50.77724 10.03257 34040 ft 444 kts 73°
2026-05-05 20:32 50.78803 10.07825 34302 ft 445 kts 73°
2026-05-05 20:32 50.79878 10.12364 34539 ft 446 kts 73°
2026-05-05 20:33 50.80979 10.17007 34750 ft 447 kts 73°
2026-05-05 20:33 50.83161 10.26265 34809 ft 450 kts 73°
2026-05-05 20:34 50.85333 10.35552 34808 ft 450 kts 73°
2026-05-05 20:34 50.87492 10.44860 34799 ft 451 kts 74°
2026-05-05 20:35 50.89649 10.54191 34804 ft 452 kts 74°
2026-05-05 20:35 50.91809 10.63539 34807 ft 452 kts 74°
2026-05-05 20:36 50.93959 10.72900 34810 ft 452 kts 74°
2026-05-05 20:36 50.96095 10.82276 34808 ft 452 kts 74°
2026-05-05 20:37 50.98223 10.91646 34785 ft 452 kts 74°
2026-05-05 20:37 51.00351 11.01027 34790 ft 452 kts 74°
2026-05-05 20:38 51.02488 11.10487 34790 ft 452 kts 74°
2026-05-05 20:38 51.04593 11.19840 34796 ft 453 kts 74°
2026-05-05 20:39 51.06704 11.29283 34781 ft 454 kts 74°
2026-05-05 20:39 51.08824 11.38813 34788 ft 455 kts 74°
2026-05-05 20:40 51.10938 11.48347 34761 ft 456 kts 74°
2026-05-05 20:40 51.13039 11.57866 34771 ft 457 kts 74°
2026-05-05 20:41 51.15137 11.67445 34778 ft 458 kts 74°
2026-05-05 20:41 51.17231 11.77038 34783 ft 459 kts 74°
2026-05-05 20:41 51.18284 11.81870 34612 ft 462 kts 74°
2026-05-05 20:42 51.19331 11.86688 34049 ft 460 kts 74°
2026-05-05 20:42 51.20520 11.91430 33464 ft 460 kts 67°
2026-05-05 20:42 51.22132 11.95868 32834 ft 467 kts 58°
2026-05-05 20:42 51.24183 11.99933 32196 ft 474 kts 49°
2026-05-05 20:43 51.26476 12.03778 31583 ft 477 kts 49°
2026-05-05 20:43 51.28790 12.07657 30999 ft 479 kts 49°
2026-05-05 20:43 51.31100 12.11533 30420 ft 478 kts 49°
2026-05-05 20:43 51.33337 12.15297 29840 ft 473 kts 49°
2026-05-05 20:44 51.35606 12.19122 29168 ft 468 kts 49°
2026-05-05 20:44 51.37846 12.22914 28497 ft 462 kts 49°
2026-05-05 20:44 51.40019 12.26598 27846 ft 460 kts 49°
2026-05-05 20:44 51.42239 12.30369 27226 ft 464 kts 48°
2026-05-05 20:45 51.46613 12.37812 25998 ft 454 kts 48°
2026-05-05 20:45 51.48799 12.41538 25392 ft 449 kts 48°
2026-05-05 20:45 51.50924 12.45167 24813 ft 445 kts 48°
2026-05-05 20:46 51.53029 12.48767 24243 ft 440 kts 48°
2026-05-05 20:46 51.55118 12.52344 23678 ft 436 kts 48°
2026-05-05 20:46 51.57175 12.55876 23084 ft 432 kts 48°
2026-05-05 20:46 51.59217 12.59394 22434 ft 428 kts 48°
2026-05-05 20:47 51.60583 12.61748 22010 ft 426 kts 47°
2026-05-05 20:47 51.63252 12.66345 21162 ft 422 kts 48°
2026-05-05 20:47 51.64603 12.68675 20752 ft 421 kts 48°
2026-05-05 20:47 51.66594 12.72110 20144 ft 418 kts 48°
2026-05-05 20:48 51.68564 12.75511 19568 ft 408 kts 48°
2026-05-05 20:48 51.70461 12.78785 19008 ft 392 kts 49°
2026-05-05 20:48 51.72291 12.81947 18489 ft 379 kts 49°
2026-05-05 20:48 51.74056 12.85006 17972 ft 366 kts 49°
2026-05-05 20:49 51.75769 12.87983 17406 ft 355 kts 49°
2026-05-05 20:49 51.77419 12.90926 16852 ft 344 kts 53°
2026-05-05 20:49 51.78767 12.94047 16307 ft 335 kts 62°
2026-05-05 20:49 51.79944 12.97209 15818 ft 330 kts 61°
2026-05-05 20:50 51.81128 13.00375 15376 ft 330 kts 60°
2026-05-05 20:50 51.82324 13.03564 14914 ft 332 kts 60°
2026-05-05 20:50 51.83528 13.06766 14495 ft 334 kts 60°
2026-05-05 20:50 51.84739 13.09981 14072 ft 335 kts 59°
2026-05-05 20:51 51.86273 13.12793 13697 ft 335 kts 37°
2026-05-05 20:51 51.88335 13.14429 13269 ft 326 kts 13°
2026-05-05 20:51 51.90566 13.14595 12841 ft 312 kts 348°
2026-05-05 20:51 51.92519 13.13324 12423 ft 298 kts 322°
2026-05-05 20:52 51.93950 13.11022 12021 ft 285 kts 307°
2026-05-05 20:52 51.95149 13.08565 11629 ft 278 kts 305°
2026-05-05 20:52 51.96331 13.06090 11239 ft 270 kts 305°
2026-05-05 20:52 51.97470 13.03693 10871 ft 267 kts 306°
2026-05-05 20:53 51.98590 13.01292 10501 ft 264 kts 305°
2026-05-05 20:53 51.99682 12.98894 10152 ft 265 kts 305°
2026-05-05 20:53 52.00769 12.96482 9785 ft 267 kts 305°
2026-05-05 20:53 52.01860 12.94026 9394 ft 268 kts 305°
2026-05-05 20:54 52.02957 12.91569 9002 ft 269 kts 306°
2026-05-05 20:54 52.04296 12.89474 8602 ft 267 kts 329°
2026-05-05 20:54 52.05983 12.88452 8294 ft 253 kts 353°
2026-05-05 20:54 52.07686 12.88592 8041 ft 243 kts 17°
2026-05-05 20:55 52.09184 12.89754 7792 ft 238 kts 39°
2026-05-05 20:55 52.10434 12.91489 7515 ft 235 kts 43°
2026-05-05 20:55 52.11669 12.93225 7220 ft 234 kts 42°
2026-05-05 20:55 52.12904 12.94951 6925 ft 233 kts 42°
2026-05-05 20:56 52.14126 12.96654 6676 ft 230 kts 42°
2026-05-05 20:56 52.15329 12.98337 6435 ft 227 kts 42°
2026-05-05 20:56 52.16520 13.00007 6196 ft 224 kts 43°
2026-05-05 20:56 52.17691 13.01649 5944 ft 221 kts 43°
2026-05-05 20:57 52.18852 13.03280 5688 ft 219 kts 43°
2026-05-05 20:57 52.20003 13.04898 5433 ft 218 kts 42°
2026-05-05 20:57 52.21144 13.06507 5185 ft 216 kts 42°
2026-05-05 20:57 52.22272 13.08096 4937 ft 212 kts 43°
2026-05-05 20:58 52.23364 13.09631 4703 ft 202 kts 42°
2026-05-05 20:58 52.24404 13.11094 4481 ft 193 kts 44°
2026-05-05 20:58 52.25403 13.12500 4259 ft 185 kts 43°
2026-05-05 20:58 52.26343 13.13848 4044 ft 177 kts 47°
2026-05-05 20:59 52.27018 13.15481 3858 ft 173 kts 68°
2026-05-05 20:59 52.27461 13.17316 3674 ft 174 kts 69°
2026-05-05 20:59 52.27904 13.19151 3501 ft 173 kts 69°
2026-05-05 20:59 52.28341 13.20963 3426 ft 172 kts 69°
2026-05-05 21:00 52.28779 13.22783 3248 ft 171 kts 69°
2026-05-05 21:00 52.29217 13.24601 3043 ft 173 kts 69°
2026-05-05 21:00 52.29651 13.26407 2816 ft 170 kts 69°
2026-05-05 21:00 52.30079 13.28189 2596 ft 167 kts 69°
2026-05-05 21:01 52.30498 13.29932 2380 ft 163 kts 69°
2026-05-05 21:01 52.30902 13.31615 2166 ft 153 kts 69°
2026-05-05 21:01 52.31281 13.33195 1961 ft 144 kts 69°
2026-05-05 21:01 52.31639 13.34688 1762 ft 139 kts 69°
2026-05-05 21:02 52.31989 13.36145 1587 ft 137 kts 68°
2026-05-05 21:02 52.32336 13.37596 1391 ft 137 kts 69°
2026-05-05 21:02 52.32681 13.39042 1196 ft 136 kts 68°
2026-05-05 21:02 52.33026 13.40488 998 ft 137 kts 68°
2026-05-05 21:03 52.33373 13.41935 796 ft 135 kts 66°
2026-05-05 21:03 52.33714 13.43374 667 ft 135 kts 66°
2026-05-05 21:03 52.34070 13.44832 454 ft 138 kts 65°
2026-05-05 21:03 52.34406 13.46257 299 ft 136 kts 66°
2026-05-05 21:04 52.34747 13.47697 181 ft 133 kts 65°
2026-05-05 21:04 52.34827 13.48033 162 ft 0 kts 66°